,,Stat6,,Stat2,,Stat8,,Stat9,,Stat10,,Wind1,,Wind1,
time,status,PA1M_AVG,status,PR1M_SUM,status,RH1M_AVG,status,SR1M_AVG,status,TA1M_AVG,status,W1dAve1m,status,W1sAve1m,
2007-08-10, 00:00:00,VALID,917.655,VALID,0,VALID,100,VALID,-0.0679233,VALID,20.0497,VALID,15,VALID,1.1079,
2007-08-10, 00:01:00,VALID,917.654,VALID,0,VALID,100,VALID,-0.0509425,VALID,20.0203,VALID,21,VALID,1.27251,
2007-08-10, 00:02:00,VALID,917.669,VALID,0,VALID,100,VALID,-0.0849042,VALID,19.9978,VALID,31,VALID,0.637195,
2007-08-10, 00:03:00,VALID,917.667,VALID,0,VALID,100,VALID,-0.0679233,VALID,19.9911,VALID,27,VALID,0.206076,
2007-08-10, 00:04:00,VALID,917.663,VALID,0,VALID,100,VALID,-0.0679233,VALID,19.9878,VALID,27,VALID,0.138672,
2007-08-10, 00:05:00,VALID,917.658,VALID,0,VALID,100,VALID,-0.101885,VALID,19.9878,VALID,27,VALID,0.155488,
2007-08-10, 00:06:00,VALID,917.642,VALID,0,VALID,100,VALID,-0.0679233,VALID,20.0011,VALID,29,VALID,0.434961,
2007-08-10, 00:07:00,VALID,917.628,VALID,0,VALID,100,VALID,-0.0849042,VALID,20.0043,VALID,26,VALID,0.554688,
2007-08-10, 00:08:00,VALID,917.644,VALID,0,VALID,100,VALID,-0.101885,VALID,20.0076,VALID,26,VALID,0.461372,
2007-08-10, 00:09:00,VALID,917.636,VALID,0,VALID,100,VALID,-0.0849042,VALID,19.9946,VALID,17,VALID,0.409226,
2007-08-10, 00:10:00,VALID,917.628,VALID,0,VALID,100,VALID,-0.0679233,VALID,19.9878,VALID,7,VALID,0.615371,
2007-08-10, 00:11:00,VALID,917.638,VALID,0,VALID,100,VALID,-0.0849042,VALID,19.9846,VALID,16,VALID,0.84375,
2007-08-10, 00:12:00,VALID,917.646,VALID,0,VALID,100,VALID,-0.0679233,VALID,19.9878,VALID,19,VALID,0.782552,
2007-08-10, 00:13:00,VALID,917.659,VALID,0,VALID,100,VALID,-0.0679233,VALID,19.9749,VALID,19,VALID,0.713956,
2007-08-10, 00:14:00,VALID,917.66,VALID,0,VALID,100,VALID,-0.0849042,VALID,19.9489,VALID,18,VALID,0.680069,
2007-08-10, 00:15:00,VALID,917.658,VALID,0,VALID,100,VALID,0.0509425,VALID,19.9119,VALID,16,VALID,0.611049,
2007-08-10, 00:16:00,VALID,917.663,VALID,0,VALID,100,VALID,0.0509425,VALID,19.9022,VALID,2,VALID,0.628239,
2007-08-10, 00:17:00,VALID,917.66,VALID,0,VALID,100,VALID,0.0169808,VALID,19.8927,VALID,1,VALID,0.549924,
2007-08-10, 00:18:00,VALID,917.664,VALID,0,VALID,100,VALID,0.0339617,VALID,19.8957,VALID,1,VALID,0.5625,
2007-08-10, 00:19:00,VALID,917.663,VALID,0,VALID,100,VALID,0.101885,VALID,19.9049,VALID,5,VALID,0.612233,
2007-08-10, 00:20:00,VALID,917.67,VALID,0,VALID,100,VALID,0.0509425,VALID,19.9022,VALID,11,VALID,1.01429,
2007-08-10, 00:21:00,VALID,917.674,VALID,0,VALID,100,VALID,0.0339617,VALID,19.8695,VALID,27,VALID,0.711825,
2007-08-10, 00:22:00,VALID,917.673,VALID,0,VALID,100,VALID,0,VALID,19.8635,VALID,23,VALID,0.728016,
2007-08-10, 00:23:00,VALID,917.668,VALID,0,VALID,100,VALID,0.0339617,VALID,19.8471,VALID,21,VALID,0.555069,
2007-08-10, 00:24:00,VALID,917.648,VALID,0,VALID,100,VALID,0.0339617,VALID,19.8565,VALID,3,VALID,1.05126,
2007-08-10, 00:25:00,VALID,917.664,VALID,0,VALID,100,VALID,0.0169808,VALID,19.8595,VALID,9,VALID,0.923633,
2007-08-10, 00:26:00,VALID,917.668,VALID,0,VALID,100,VALID,0.0509425,VALID,19.8236,VALID,2,VALID,0.787427,
2007-08-10, 00:27:00,VALID,917.654,VALID,0,VALID,100,VALID,0.0509425,VALID,19.8306,VALID,334,VALID,1.20636,
2007-08-10, 00:28:00,VALID,917.637,VALID,0,VALID,100,VALID,0.0509425,VALID,19.8436,VALID,281,VALID,0.569404,
2007-08-10, 00:29:00,VALID,917.608,VALID,0,VALID,100,VALID,0.0509425,VALID,19.8396,VALID,314,VALID,0.692336,
2007-08-10, 00:30:00,VALID,917.581,VALID,0,VALID,100,VALID,0.0339617,VALID,19.85,VALID,337,VALID,0.342448,
2007-08-10, 00:31:00,VALID,917.55,VALID,0,VALID,100,VALID,0.0509425,VALID,19.8535,VALID,359,VALID,0.945313,
2007-08-10, 00:32:00,VALID,917.536,VALID,0,VALID,100,VALID,-0.0679233,VALID,19.8248,VALID,2,VALID,0.665838,
2007-08-10, 00:33:00,VALID,917.547,VALID,0,VALID,100,VALID,-0.0169808,VALID,19.8223,VALID,3,VALID,0.755269,
2007-08-10, 00:34:00,VALID,917.53,VALID,0,VALID,100,VALID,-0.0339617,VALID,19.8091,VALID,330,VALID,0.570884,
2007-08-10, 00:35:00,VALID,917.524,VALID,0,VALID,100,VALID,-0.0679233,VALID,19.8059,VALID,306,VALID,0.387091,
2007-08-10, 00:36:00,VALID,917.509,VALID,0,VALID,100,VALID,-0.0849042,VALID,19.7996,VALID,300,VALID,0.519077,
2007-08-10, 00:37:00,VALID,917.503,VALID,0,VALID,100,VALID,-0.0679233,VALID,19.7994,VALID,299,VALID,0.106534,
2007-08-10, 00:38:00,VALID,917.505,VALID,0,VALID,100,VALID,-0.0679233,VALID,19.8031,VALID,299,VALID,0.265447,
2007-08-10, 00:39:00,VALID,917.537,VALID,0,VALID,100,VALID,-0.0849042,VALID,19.7926,VALID,299,VALID,0.104911,
2007-08-10, 00:40:00,VALID,917.547,VALID,0,VALID,100,VALID,-0.0509425,VALID,19.7959,VALID,299,VALID,0.112165,
2007-08-10, 00:41:00,VALID,917.557,VALID,0,VALID,100,VALID,-0.0509425,VALID,19.7899,VALID,299,VALID,0.140816,
2007-08-10, 00:42:00,VALID,917.562,VALID,0,VALID,100,VALID,-0.0169808,VALID,19.7732,VALID,299,VALID,0.00121528,
2007-08-10, 00:43:00,VALID,917.535,VALID,0,VALID,100,VALID,-0.0509425,VALID,19.761,VALID,338,VALID,0.285065,
2007-08-10, 00:44:00,VALID,917.525,VALID,0,VALID,100,VALID,-0.0849042,VALID,19.7085,VALID,73,VALID,1.02103,
2007-08-10, 00:45:00,VALID,917.493,VALID,0,VALID,100,VALID,-0.101885,VALID,19.6996,VALID,72,VALID,1.00725,
2007-08-10, 00:46:00,VALID,917.46,VALID,0,VALID,100,VALID,-0.0849042,VALID,19.6993,VALID,66,VALID,1.07449,
2007-08-10, 00:47:00,VALID,917.422,VALID,0,VALID,100,VALID,-0.0679233,VALID,19.6958,VALID,61,VALID,1.28594,
2007-08-10, 00:48:00,VALID,917.432,VALID,0,VALID,100,VALID,-0.0679233,VALID,19.6763,VALID,60,VALID,1.08221,
2007-08-10, 00:49:00,VALID,917.43,VALID,0,VALID,100,VALID,-0.0679233,VALID,19.6407,VALID,56,VALID,1.26035,
2007-08-10, 00:50:00,VALID,917.428,VALID,0,VALID,100,VALID,-0.0849042,VALID,19.6047,VALID,66,VALID,1.1161,
2007-08-10, 00:51:00,VALID,917.407,VALID,0,VALID,100,VALID,-0.0339617,VALID,19.6017,VALID,76,VALID,1.35781,
2007-08-10, 00:52:00,VALID,917.37,VALID,0,VALID,100,VALID,-0.0849042,VALID,19.5788,VALID,78,VALID,1.53296,
2007-08-10, 00:53:00,VALID,917.345,VALID,0,VALID,100,VALID,-0.0509425,VALID,19.5461,VALID,74,VALID,1.33889,
2007-08-10, 00:54:00,VALID,917.333,VALID,0,VALID,100,VALID,-0.0339617,VALID,19.5144,VALID,52,VALID,1.19062,
2007-08-10, 00:55:00,VALID,917.319,VALID,0,VALID,100,VALID,-0.0509425,VALID,19.5041,VALID,69,VALID,1.23619,
2007-08-10, 00:56:00,VALID,917.291,VALID,0,VALID,100,VALID,-0.0509425,VALID,19.5206,VALID,80,VALID,1.23928,
2007-08-10, 00:57:00,VALID,917.262,VALID,0,VALID,100,VALID,-0.0509425,VALID,19.5565,VALID,81,VALID,1.35742,
2007-08-10, 00:58:00,VALID,917.213,VALID,0,VALID,100,VALID,-0.0339617,VALID,19.5625,VALID,79,VALID,1.20224,
2007-08-10, 00:59:00,VALID,917.202,VALID,0,VALID,100,VALID,-0.0509425,VALID,19.5531,VALID,88,VALID,1.03609,
2007-08-10, 01:00:00,VALID,917.202,VALID,0,VALID,100,VALID,-0.0169808,VALID,19.5331,VALID,109,VALID,0.935082,
2007-08-10, 01:01:00,VALID,917.191,VALID,0,VALID,100,VALID,-0.0679233,VALID,19.5136,VALID,127,VALID,1.11204,
2007-08-10, 01:02:00,VALID,917.19,VALID,0,VALID,100,VALID,-0.0169808,VALID,19.4907,VALID,147,VALID,1.19961,
2007-08-10, 01:03:00,VALID,917.172,VALID,0,VALID,100,VALID,-0.0169808,VALID,19.4515,VALID,151,VALID,1.22618,
2007-08-10, 01:04:00,VALID,917.153,VALID,0,VALID,100,VALID,0,VALID,19.4156,VALID,156,VALID,1.24546,
2007-08-10, 01:05:00,VALID,917.129,VALID,0,VALID,100,VALID,-0.0169808,VALID,19.4001,VALID,157,VALID,0.851563,
2007-08-10, 01:06:00,VALID,917.109,VALID,0,VALID,100,VALID,0,VALID,19.3577,VALID,153,VALID,0.855923,
2007-08-10, 01:07:00,VALID,917.077,VALID,0,VALID,100,VALID,-0.0169808,VALID,19.3317,VALID,145,VALID,0.871094,
2007-08-10, 01:08:00,VALID,917.044,VALID,0,VALID,100,VALID,-0.0169808,VALID,19.309,VALID,154,VALID,1.02493,
2007-08-10, 01:09:00,VALID,917.003,VALID,0,VALID,100,VALID,-0.0509425,VALID,19.312,VALID,168,VALID,0.602653,
2007-08-10, 01:10:00,VALID,916.982,VALID,0,VALID,100,VALID,-0.0339617,VALID,19.2893,VALID,158,VALID,0.456597,
2007-08-10, 01:11:00,VALID,916.958,VALID,0,VALID,100,VALID,-0.0509425,VALID,19.2768,VALID,146,VALID,0.512355,
2007-08-10, 01:12:00,VALID,916.941,VALID,0,VALID,100,VALID,-0.0169808,VALID,19.2374,VALID,145,VALID,0.750744,
2007-08-10, 01:13:00,VALID,916.928,VALID,0,VALID,100,VALID,-0.0679233,VALID,19.2242,VALID,142,VALID,0.775073,
2007-08-10, 01:14:00,VALID,916.919,VALID,0,VALID,100,VALID,-0.0509425,VALID,19.2404,VALID,139,VALID,0.885016,
2007-08-10, 01:15:00,VALID,916.904,VALID,0,VALID,100,VALID,-0.0339617,VALID,19.2274,VALID,124,VALID,0.799538,
2007-08-10, 01:16:00,VALID,916.888,VALID,0,VALID,100,VALID,0,VALID,19.2212,VALID,114,VALID,0.809593,
2007-08-10, 01:17:00,VALID,916.864,VALID,0,VALID,100,VALID,-0.0169808,VALID,19.2307,VALID,108,VALID,0.730097,
2007-08-10, 01:18:00,VALID,916.845,VALID,0,VALID,100,VALID,-0.0509425,VALID,19.2249,VALID,108,VALID,0.582889,
2007-08-10, 01:19:00,VALID,916.824,VALID,0,VALID,100,VALID,-0.0169808,VALID,19.1887,VALID,108,VALID,0.564135,
2007-08-10, 01:20:00,VALID,916.783,VALID,0,VALID,100,VALID,0,VALID,19.1628,VALID,101,VALID,0.786285,
2007-08-10, 01:21:00,VALID,916.744,VALID,0,VALID,100,VALID,-0.0339617,VALID,19.1366,VALID,97,VALID,0.700763,
2007-08-10, 01:22:00,VALID,916.708,VALID,0,VALID,100,VALID,-0.0339617,VALID,19.0652,VALID,90,VALID,0.713742,
2007-08-10, 01:23:00,VALID,916.668,VALID,0,VALID,100,VALID,0,VALID,19.0295,VALID,75,VALID,0.763021,
2007-08-10, 01:24:00,VALID,916.647,VALID,0,VALID,100,VALID,-0.0169808,VALID,19.0425,VALID,70,VALID,0.59517,
2007-08-10, 01:25:00,VALID,916.635,VALID,0,VALID,100,VALID,0,VALID,19.0198,VALID,68,VALID,0.397727,
2007-08-10, 01:26:00,VALID,916.624,VALID,0,VALID,100,VALID,0,VALID,18.9936,VALID,45,VALID,0.568359,
2007-08-10, 01:27:00,VALID,916.637,VALID,0,VALID,100,VALID,-0.0169808,VALID,19.0231,VALID,308,VALID,0.789789,
2007-08-10, 01:28:00,VALID,916.653,VALID,0,VALID,100,VALID,-0.0169808,VALID,19.0553,VALID,303,VALID,0.714026,
2007-08-10, 01:29:00,VALID,916.659,VALID,0,VALID,100,VALID,-0.0169808,VALID,19.1074,VALID,303,VALID,0.565848,
2007-08-10, 01:30:00,VALID,916.67,VALID,0,VALID,100,VALID,0.0169808,VALID,19.1498,VALID,303,VALID,0.585556,
2007-08-10, 01:31:00,VALID,916.669,VALID,0,VALID,100,VALID,0,VALID,19.1623,VALID,303,VALID,0.353277,
2007-08-10, 01:32:00,VALID,916.692,VALID,0,VALID,100,VALID,0.0169808,VALID,19.1818,VALID,303,VALID,0.00230824,
2007-08-10, 01:33:00,VALID,916.703,VALID,0,VALID,100,VALID,0,VALID,19.1915,VALID,303,VALID,0.0427912,
2007-08-10, 01:34:00,VALID,916.686,VALID,0,VALID,100,VALID,0,VALID,19.1985,VALID,303,VALID,0.0846946,
2007-08-10, 01:35:00,VALID,916.693,VALID,0,VALID,100,VALID,0,VALID,19.1528,VALID,303,VALID,0.053267,
2007-08-10, 01:36:00,VALID,916.684,VALID,0,VALID,100,VALID,0,VALID,19.1139,VALID,303,VALID,0.194404,
2007-08-10, 01:37:00,VALID,916.693,VALID,0,VALID,100,VALID,-0.0169808,VALID,19.1136,VALID,303,VALID,0.0749199,
2007-08-10, 01:38:00,VALID,916.7,VALID,0,VALID,100,VALID,0,VALID,19.1269,VALID,303,VALID,0.000952744,
2007-08-10, 01:39:00,VALID,916.684,VALID,0,VALID,100,VALID,0,VALID,19.1303,VALID,303,VALID,0,
2007-08-10, 01:40:00,VALID,916.654,VALID,0,VALID,100,VALID,-0.0509425,VALID,19.1598,VALID,303,VALID,0,
2007-08-10, 01:41:00,VALID,916.654,VALID,0,VALID,100,VALID,-0.0339617,VALID,19.1595,VALID,303,VALID,0.109947,
2007-08-10, 01:42:00,VALID,916.671,VALID,0,VALID,100,VALID,-0.0509425,VALID,19.1109,VALID,304,VALID,0.0554687,
2007-08-10, 01:43:00,VALID,916.678,VALID,0,VALID,100,VALID,-0.0169808,VALID,19.0655,VALID,304,VALID,0,
2007-08-10, 01:44:00,VALID,916.676,VALID,0,VALID,100,VALID,-0.0169808,VALID,19.059,VALID,304,VALID,0,
2007-08-10, 01:45:00,VALID,916.665,VALID,0,VALID,100,VALID,-0.0339617,VALID,19.0525,VALID,304,VALID,0.0219494,
2007-08-10, 01:46:00,VALID,916.668,VALID,0,VALID,100,VALID,-0.0339617,VALID,19.0715,VALID,304,VALID,0.431176,
2007-08-10, 01:47:00,VALID,916.659,VALID,0,VALID,100,VALID,0,VALID,19.1074,VALID,295,VALID,0.601017,
2007-08-10, 01:48:00,VALID,916.661,VALID,0,VALID,100,VALID,-0.0169808,VALID,19.1044,VALID,293,VALID,0.381904,
2007-08-10, 01:49:00,VALID,916.644,VALID,0,VALID,100,VALID,-0.0339617,VALID,19.1271,VALID,345,VALID,0.529119,
2007-08-10, 01:50:00,VALID,916.625,VALID,0,VALID,100,VALID,-0.0169808,VALID,19.1331,VALID,44,VALID,0.594815,
2007-08-10, 01:51:00,VALID,916.639,VALID,0,VALID,100,VALID,-0.0169808,VALID,19.1204,VALID,11,VALID,0.604936,
2007-08-10, 01:52:00,VALID,916.669,VALID,0,VALID,100,VALID,0.0169808,VALID,19.084,VALID,299,VALID,0.335007,
2007-08-10, 01:53:00,VALID,916.714,VALID,0,VALID,100,VALID,0,VALID,19.0942,VALID,287,VALID,0.32976,
2007-08-10, 01:54:00,VALID,916.709,VALID,0,VALID,100,VALID,0.0169808,VALID,19.1139,VALID,276,VALID,0.156068,
2007-08-10, 01:55:00,VALID,916.695,VALID,0,VALID,100,VALID,-0.0169808,VALID,19.1269,VALID,334,VALID,0.382813,
2007-08-10, 01:56:00,VALID,916.661,VALID,0,VALID,100,VALID,0.0339617,VALID,19.1234,VALID,28,VALID,0.751674,
2007-08-10, 01:57:00,VALID,916.654,VALID,0,VALID,100,VALID,0.0169808,VALID,19.1004,VALID,27,VALID,0.476223,
2007-08-10, 01:58:00,VALID,916.649,VALID,0,VALID,100,VALID,0,VALID,19.081,VALID,27,VALID,0.0600142,
2007-08-10, 01:59:00,VALID,916.643,VALID,0,VALID,100,VALID,0.0169808,VALID,19.0715,VALID,27,VALID,0,
2007-08-10, 02:00:00,VALID,916.629,VALID,0,VALID,100,VALID,0,VALID,19.0587,VALID,27,VALID,0,
2007-08-10, 02:01:00,VALID,916.604,VALID,0,VALID,100,VALID,-0.0169808,VALID,19.0425,VALID,27,VALID,0.0065407,
2007-08-10, 02:02:00,VALID,916.582,VALID,0,VALID,100,VALID,-0.0339617,VALID,19.0261,VALID,27,VALID,0.112424,
2007-08-10, 02:03:00,VALID,916.56,VALID,0,VALID,100,VALID,0.0169808,VALID,19.0004,VALID,27,VALID,0.094494,
2007-08-10, 02:04:00,VALID,916.539,VALID,0,VALID,100,VALID,0,VALID,18.9969,VALID,27,VALID,0.0559304,
2007-08-10, 02:05:00,VALID,916.501,VALID,0,VALID,100,VALID,0,VALID,18.9744,VALID,27,VALID,0.015625,
2007-08-10, 02:06:00,VALID,916.477,VALID,0,VALID,100,VALID,0.0169808,VALID,18.9809,VALID,307,VALID,0.56529,
2007-08-10, 02:07:00,VALID,916.445,VALID,0,VALID,100,VALID,0.0509425,VALID,18.9939,VALID,276,VALID,0.62314,
2007-08-10, 02:08:00,VALID,916.428,VALID,0,VALID,100,VALID,0,VALID,18.9939,VALID,276,VALID,0.316315,
2007-08-10, 02:09:00,VALID,916.392,VALID,0,VALID,100,VALID,0.0169808,VALID,18.9936,VALID,290,VALID,0.341619,
2007-08-10, 02:10:00,VALID,916.369,VALID,0,VALID,100,VALID,0.0339617,VALID,18.9936,VALID,6,VALID,0.717297,
2007-08-10, 02:11:00,VALID,916.327,VALID,0,VALID,100,VALID,0,VALID,18.9644,VALID,18,VALID,0.741797,
2007-08-10, 02:12:00,VALID,916.318,VALID,0,VALID,100,VALID,0,VALID,18.9315,VALID,15,VALID,0.443314,
2007-08-10, 02:13:00,VALID,916.283,VALID,0,VALID,100,VALID,0.0169808,VALID,18.922,VALID,7,VALID,0.212936,
2007-08-10, 02:14:00,VALID,916.257,VALID,0,VALID,100,VALID,0,VALID,18.932,VALID,7,VALID,0.0703125,
2007-08-10, 02:15:00,VALID,916.257,VALID,0,VALID,100,VALID,-0.0849042,VALID,18.9367,VALID,6,VALID,0.465116,
2007-08-10, 02:16:00,VALID,916.282,VALID,0,VALID,100,VALID,-0.101885,VALID,18.9295,VALID,3,VALID,0.300595,
2007-08-10, 02:17:00,VALID,916.313,VALID,0,VALID,100,VALID,-0.101885,VALID,18.9464,VALID,3,VALID,0.288352,
2007-08-10, 02:18:00,VALID,916.301,VALID,0,VALID,100,VALID,-0.101885,VALID,18.9429,VALID,3,VALID,0.112153,
2007-08-10, 02:19:00,VALID,916.265,VALID,0,VALID,100,VALID,-0.101885,VALID,18.9466,VALID,3,VALID,0,
2007-08-10, 02:20:00,VALID,916.244,VALID,0,VALID,100,VALID,-0.0849042,VALID,18.9497,VALID,3,VALID,0.171165,
2007-08-10, 02:21:00,VALID,916.224,VALID,0,VALID,100,VALID,-0.0849042,VALID,18.9527,VALID,3,VALID,0.00243056,
2007-08-10, 02:22:00,VALID,916.213,VALID,0,VALID,100,VALID,-0.101885,VALID,18.9436,VALID,3,VALID,0.00990854,
2007-08-10, 02:23:00,VALID,916.193,VALID,0,VALID,100,VALID,-0.118866,VALID,18.9142,VALID,3,VALID,0.18859,
2007-08-10, 02:24:00,VALID,916.175,VALID,0,VALID,100,VALID,-0.101885,VALID,18.8848,VALID,330,VALID,0.681548,
2007-08-10, 02:25:00,VALID,916.176,VALID,0,VALID,100,VALID,-0.0679233,VALID,18.8653,VALID,359,VALID,0.302871,
2007-08-10, 02:26:00,VALID,916.168,VALID,0,VALID,100,VALID,-0.101885,VALID,18.8558,VALID,1,VALID,0.105196,
2007-08-10, 02:27:00,VALID,916.161,VALID,0,VALID,100,VALID,-0.101885,VALID,18.8556,VALID,360,VALID,0,
2007-08-10, 02:28:00,VALID,916.158,VALID,0,VALID,100,VALID,-0.118866,VALID,18.8394,VALID,360,VALID,0.0696023,
2007-08-10, 02:29:00,VALID,916.168,VALID,0,VALID,100,VALID,-0.0679233,VALID,18.8364,VALID,360,VALID,0.152083,
2007-08-10, 02:30:00,VALID,916.195,VALID,0,VALID,100,VALID,0,VALID,18.8085,VALID,360,VALID,0.207485,
2007-08-10, 02:31:00,VALID,916.234,VALID,0,VALID,100,VALID,0.0169808,VALID,18.789,VALID,2,VALID,0.191016,
2007-08-10, 02:32:00,VALID,916.233,VALID,0,VALID,100,VALID,-0.0169808,VALID,18.7663,VALID,53,VALID,0.35831,
2007-08-10, 02:33:00,VALID,916.225,VALID,0,VALID,100,VALID,0,VALID,18.7591,VALID,53,VALID,0.392671,
2007-08-10, 02:34:00,VALID,916.228,VALID,0,VALID,100,VALID,-0.0169808,VALID,18.7728,VALID,53,VALID,0.09375,
2007-08-10, 02:35:00,VALID,916.237,VALID,0,VALID,100,VALID,0,VALID,18.783,VALID,53,VALID,0.138494,
2007-08-10, 02:36:00,VALID,916.265,VALID,0,VALID,100,VALID,0.0169808,VALID,18.7471,VALID,118,VALID,0.598656,
2007-08-10, 02:37:00,VALID,916.28,VALID,0,VALID,100,VALID,0.0339617,VALID,18.7077,VALID,177,VALID,1.09936,
2007-08-10, 02:38:00,VALID,916.295,VALID,0,VALID,100,VALID,0,VALID,18.676,VALID,186,VALID,1.17876,
2007-08-10, 02:39:00,VALID,916.306,VALID,0,VALID,100,VALID,0,VALID,18.6403,VALID,185,VALID,1.10621,
2007-08-10, 02:40:00,VALID,916.314,VALID,0,VALID,100,VALID,0,VALID,18.6077,VALID,183,VALID,0.351963,
2007-08-10, 02:41:00,VALID,916.323,VALID,0,VALID,100,VALID,-0.0849042,VALID,18.6047,VALID,183,VALID,0.0563616,
2007-08-10, 02:42:00,VALID,916.343,VALID,0,VALID,100,VALID,0,VALID,18.6079,VALID,183,VALID,0.0158067,
2007-08-10, 02:43:00,VALID,916.357,VALID,0,VALID,100,VALID,0,VALID,18.6241,VALID,183,VALID,0.202592,
2007-08-10, 02:44:00,VALID,916.353,VALID,0,VALID,100,VALID,0.0339617,VALID,18.6433,VALID,183,VALID,0.316592,
2007-08-10, 02:45:00,VALID,916.329,VALID,0,VALID,100,VALID,0.101885,VALID,18.6811,VALID,183,VALID,0.0752841,
2007-08-10, 02:46:00,VALID,916.31,VALID,0,VALID,100,VALID,0.118866,VALID,18.7232,VALID,183,VALID,0.00319602,
2007-08-10, 02:47:00,VALID,916.287,VALID,0,VALID,100,VALID,0.101885,VALID,18.7427,VALID,183,VALID,0.134201,
2007-08-10, 02:48:00,VALID,916.263,VALID,0,VALID,100,VALID,0.0849042,VALID,18.7135,VALID,183,VALID,0.356957,
2007-08-10, 02:49:00,VALID,916.238,VALID,0,VALID,100,VALID,0.101885,VALID,18.6709,VALID,183,VALID,0.184152,
2007-08-10, 02:50:00,VALID,916.224,VALID,0,VALID,100,VALID,0.101885,VALID,18.6616,VALID,183,VALID,0,
2007-08-10, 02:51:00,VALID,916.209,VALID,0,VALID,100,VALID,0.0849042,VALID,18.6452,VALID,183,VALID,0,
2007-08-10, 02:52:00,VALID,916.197,VALID,0,VALID,100,VALID,0.0679233,VALID,18.6327,VALID,183,VALID,0,
2007-08-10, 02:53:00,VALID,916.17,VALID,0,VALID,100,VALID,0.0679233,VALID,18.6097,VALID,183,VALID,0,
2007-08-10, 02:54:00,VALID,916.146,VALID,0,VALID,100,VALID,0.0679233,VALID,18.5544,VALID,173,VALID,0.399926,
2007-08-10, 02:55:00,VALID,916.1,VALID,0,VALID,100,VALID,0.101885,VALID,18.5057,VALID,34,VALID,0.973323,
2007-08-10, 02:56:00,VALID,916.049,VALID,0,VALID,100,VALID,0.0849042,VALID,18.512,VALID,34,VALID,1.43729,
2007-08-10, 02:57:00,VALID,916.029,VALID,0,VALID,100,VALID,0.0849042,VALID,18.5379,VALID,34,VALID,1.45084,
2007-08-10, 02:58:00,VALID,916.045,VALID,0,VALID,100,VALID,0.0849042,VALID,18.5801,VALID,31,VALID,0.764482,
2007-08-10, 02:59:00,VALID,916.069,VALID,0,VALID,100,VALID,0.0849042,VALID,18.6028,VALID,43,VALID,0.5984,
2007-08-10, 03:00:00,VALID,916.101,VALID,0,VALID,100,VALID,0,VALID,18.5937,VALID,44,VALID,0.812686,
2007-08-10, 03:01:00,VALID,916.106,VALID,0,VALID,100,VALID,0.0169808,VALID,18.6037,VALID,40,VALID,1.06157,
2007-08-10, 03:02:00,VALID,916.15,VALID,0,VALID,100,VALID,0,VALID,18.5942,VALID,35,VALID,0.97603,
2007-08-10, 03:03:00,VALID,916.185,VALID,0,VALID,100,VALID,0,VALID,18.5812,VALID,39,VALID,0.254297,
2007-08-10, 03:04:00,VALID,916.216,VALID,0,VALID,100,VALID,0,VALID,18.5588,VALID,39,VALID,0.036859,
2007-08-10, 03:05:00,VALID,916.211,VALID,0,VALID,100,VALID,0,VALID,18.5588,VALID,39,VALID,0,
2007-08-10, 03:06:00,VALID,916.203,VALID,0,VALID,100,VALID,0.0169808,VALID,18.562,VALID,39,VALID,0,
2007-08-10, 03:07:00,VALID,916.176,VALID,0,VALID,100,VALID,0,VALID,18.5722,VALID,39,VALID,0.0644531,
2007-08-10, 03:08:00,VALID,916.157,VALID,0,VALID,100,VALID,0,VALID,18.5752,VALID,39,VALID,0.299306,
2007-08-10, 03:09:00,VALID,916.152,VALID,0,VALID,100,VALID,-0.0169808,VALID,18.5815,VALID,39,VALID,0.514915,
2007-08-10, 03:10:00,VALID,916.162,VALID,0,VALID,100,VALID,0,VALID,18.5713,VALID,37,VALID,0.468941,
2007-08-10, 03:11:00,VALID,916.153,VALID,0,VALID,100,VALID,-0.0339617,VALID,18.5618,VALID,35,VALID,0.0454215,
2007-08-10, 03:12:00,VALID,916.162,VALID,0,VALID,100,VALID,0.0169808,VALID,18.5785,VALID,35,VALID,0,
2007-08-10, 03:13:00,VALID,916.164,VALID,0,VALID,100,VALID,-0.0169808,VALID,18.5847,VALID,35,VALID,0,
2007-08-10, 03:14:00,VALID,916.154,VALID,0,VALID,100,VALID,0,VALID,18.5884,VALID,35,VALID,0,
2007-08-10, 03:15:00,VALID,916.16,VALID,0,VALID,100,VALID,0,VALID,18.5328,VALID,35,VALID,0.323171,
2007-08-10, 03:16:00,VALID,916.152,VALID,0,VALID,100,VALID,-0.0169808,VALID,18.4487,VALID,35,VALID,0.581944,
2007-08-10, 03:17:00,VALID,916.145,VALID,0,VALID,100,VALID,0,VALID,18.3445,VALID,35,VALID,0.460007,
2007-08-10, 03:18:00,VALID,916.154,VALID,0,VALID,100,VALID,-0.0169808,VALID,18.319,VALID,35,VALID,0.322856,
2007-08-10, 03:19:00,VALID,916.148,VALID,0,VALID,100,VALID,0,VALID,18.3095,VALID,39,VALID,0.642535,
2007-08-10, 03:20:00,VALID,916.138,VALID,0,VALID,100,VALID,-0.0169808,VALID,18.3091,VALID,52,VALID,0.812881,
2007-08-10, 03:21:00,VALID,916.133,VALID,0,VALID,100,VALID,-0.0169808,VALID,18.2799,VALID,69,VALID,0.953852,
2007-08-10, 03:22:00,VALID,916.123,VALID,0,VALID,100,VALID,0,VALID,18.2442,VALID,77,VALID,1.35956,
2007-08-10, 03:23:00,VALID,916.12,VALID,0,VALID,100,VALID,0.0169808,VALID,18.1692,VALID,89,VALID,1.40015,
2007-08-10, 03:24:00,VALID,916.156,VALID,0,VALID,100,VALID,-0.0169808,VALID,18.114,VALID,99,VALID,1.28779,
2007-08-10, 03:25:00,VALID,916.148,VALID,0,VALID,100,VALID,-0.0169808,VALID,18.0948,VALID,93,VALID,1.2761,
2007-08-10, 03:26:00,VALID,916.145,VALID,0,VALID,100,VALID,0,VALID,18.0751,VALID,85,VALID,1.08687,
2007-08-10, 03:27:00,VALID,916.132,VALID,0,VALID,100,VALID,0,VALID,18.0499,VALID,85,VALID,1.18698,
2007-08-10, 03:28:00,VALID,916.15,VALID,0,VALID,100,VALID,-0.0169808,VALID,18.0371,VALID,91,VALID,1.35417,
2007-08-10, 03:29:00,VALID,916.163,VALID,0,VALID,100,VALID,0,VALID,18.0401,VALID,102,VALID,1.12336,
2007-08-10, 03:30:00,VALID,916.169,VALID,0,VALID,100,VALID,-0.0169808,VALID,18.0434,VALID,108,VALID,0.879654,
2007-08-10, 03:31:00,VALID,916.174,VALID,0,VALID,100,VALID,-0.0169808,VALID,18.0522,VALID,108,VALID,0.947311,
2007-08-10, 03:32:00,VALID,916.177,VALID,0,VALID,100,VALID,0.0169808,VALID,18.0756,VALID,105,VALID,1.03434,
2007-08-10, 03:33:00,VALID,916.196,VALID,0,VALID,100,VALID,-0.0169808,VALID,18.0858,VALID,105,VALID,1.01309,
2007-08-10, 03:34:00,VALID,916.21,VALID,0,VALID,100,VALID,-0.0169808,VALID,18.0981,VALID,106,VALID,0.86044,
2007-08-10, 03:35:00,VALID,916.211,VALID,0,VALID,100,VALID,0,VALID,18.127,VALID,111,VALID,0.837891,
2007-08-10, 03:36:00,VALID,916.209,VALID,0,VALID,100,VALID,-0.0169808,VALID,18.1402,VALID,113,VALID,0.993459,
2007-08-10, 03:37:00,VALID,916.182,VALID,0,VALID,100,VALID,-0.0169808,VALID,18.118,VALID,119,VALID,1.05103,
2007-08-10, 03:38:00,VALID,916.152,VALID,0,VALID,100,VALID,-0.0509425,VALID,18.092,VALID,107,VALID,0.836496,
2007-08-10, 03:39:00,VALID,916.132,VALID,0,VALID,100,VALID,-0.0339617,VALID,18.0659,VALID,90,VALID,0.820131,
2007-08-10, 03:40:00,VALID,916.121,VALID,0,VALID,100,VALID,-0.0169808,VALID,18.0269,VALID,84,VALID,0.825817,
2007-08-10, 03:41:00,VALID,916.104,VALID,0,VALID,100,VALID,0,VALID,18.0529,VALID,71,VALID,0.930804,
2007-08-10, 03:42:00,VALID,916.105,VALID,0,VALID,100,VALID,-0.0169808,VALID,18.0529,VALID,56,VALID,0.766959,
2007-08-10, 03:43:00,VALID,916.102,VALID,0,VALID,100,VALID,-0.0169808,VALID,18.0492,VALID,37,VALID,0.947545,